{"data":{"norad_id":61786,"intl_designator":"2024-199BD","name":"SITRO-AIS 38","alt_names":[],"object_type":"PAYLOAD","status":"ACTIVE","operator":null,"country":"CIS","launch_date":"2024-11-04","launch_site_code":"VOSTO","launch_vehicle":null,"mission":null,"orbit_class":"UNKNOWN","rcs_meters":null,"size_class":null,"mass_kg":null,"dimensions":null,"purposes":[],"wikipedia_slug":null,"has_3d_model":false,"image_url":null,"decayed_at":null,"tle_current":{"epoch":"2026-05-25T02:49:40.332288Z","epoch_age_seconds":71841,"freshness":"FRESH","line1":"1 61786U 24199BD  26145.11782792  .00027629  00000+0  53824-3 0  9998","line2":"2 61786  97.2983  19.1228 0009949  28.5381 331.6412 15.47464075130747","mean_motion":15.47464075,"eccentricity":0.0009949,"inclination_deg":97.2983,"raan_deg":19.1228,"arg_perigee_deg":28.5381,"mean_anomaly_deg":331.6412,"bstar":0.00053824,"rev_number":13074,"period_min":93.055472063221,"perigee_km":417.37989163474,"apogee_km":430.91507730194,"semimajor_km":6802.2844844683,"source":"CELESTRAK","updated_at":"2026-05-25T13:38:02.563344Z"}}}